Regional Weather Roundup
Issued by NWS Northern Indiana

Home | Current Version | Previous Version | Text Only | Print | Product List | Glossary Off
Versions: 1 2 3 4 5 6 7 8 9 10 11 12 13 14 15 16 17 18 19 20 21 22 23 24 25 26 27 28 29 30 31 32 33 34 35 36 37 38 39 40 41 42 43 44 45 46 47 48 49 50

271
ASUS43 KIWX 240200
RWRIWX

KIWX WEATHER ROUNDUP
NATIONAL WEATHER SERVICE NORTHERN INDIANA
900 PM EST THU FEB 23 2017

NOTE: "FAIR" INDICATES FEW OR NO CLOUDS BELOW 12,000 FEET WITH NO
SIGNIFICANT WEATHER AND/OR OBSTRUCTIONS TO VISIBILITY.

* THESE STATIONS ARE NOT UNDER NWS QUALITY CONTROL. THEY ALSO MAY NOT
  REPORT WEATHER SUCH AS PRECIPITATION OR FOG.

INZ001>027-240300-
NORTHERN INDIANA

CITY           SKY/WX    TMP DP  RH WIND       PRES   REMARKS
GARY*          LGT RAIN  39  37  93 N9        29.76F
MICHIGAN CITY* HVY RAIN  37  37 100 E3        29.74F
KNOX*          CLOUDY    41  32  70 NE8       29.72F
SOUTH BEND     LGT RAIN  41  40  96 NE6       29.74F
ELKHART*       RAIN      45  43  93 N5        29.74F
GOSHEN         LGT RAIN  48  44  86 NE9       29.74F FOG
ANGOLA*          N/A     50  48  93 CALM      29.76S
FORT WAYNE     CLOUDY    57  51  80 CALM      29.74F
PERU/GRISSOM   CLOUDY    55  55 100 E7        29.70F

$$
INZ028>050-240300-
CENTRAL INDIANA

CITY           SKY/WX    TMP DP  RH WIND       PRES   REMARKS
LAFAYETTE      MOCLDY    54  48  80 E9        29.68F
KOKOMO*        CLOUDY    56  53  90 E7        29.73S
MUNCIE*        MOCLDY    59  54  83 E7        29.74S
INDIANAPOLIS   CLOUDY    61  54  77 SE9       29.70F

$$
MIZ043>046-050>051-056>058-064>065-071>073-077>080-240300-
SOUTHWEST LOWER MICHIGAN

CITY           SKY/WX    TMP DP  RH WIND       PRES   REMARKS
BATTLE CREEK   LGT RAIN  49  43  80 NE10      29.77F
BENTON HARBOR  CLOUDY    40  37  89 NE6       29.74F FOG
COLDWATER*     LGT RAIN  50  47  87 E3        29.76S
HILLSDALE*     CLOUDY    50  43  76 NE9       29.75F
HOLLAND        CLOUDY    45  38  76 NE7       29.77F
GRAND RAPIDS   CLOUDY    45  35  68 NE7       29.81S
KALAMAZOO      LGT RAIN  48  42  80 N6        29.77F
STURGIS*       LGT RAIN  47  45  91 CALM      29.76S
THREE RIVERS*  LGT RAIN  47  43  85 CALM      29.77S

$$
OHZ001>008-015>018-024>025-240300-
NORTHWEST OHIO

CITY           SKY/WX    TMP DP  RH WIND       PRES   REMARKS
DEFIANCE       CLOUDY    56  44  64 E7        29.74F
FINDLAY        CLOUDY    59  52  77 SE7       29.76S
TOLEDO EXPRESS CLOUDY    57  45  64 E5        29.77R
TOLEDO METCALF CLOUDY    56  48  74 NE13      29.80R
LIMA           CLOUDY    57  54  89 E5        29.76S

$$
AND FOR LAKE MICHIGAN COASTAL AND OPEN LAKE BUOY OBSERVATIONS

STATION/POSITION TEMP    WIND        PRES    VSBY  WAVE
                 AIR SEA DIR/SP/G                  HT/PER
                 (F)     (DEG/KT/KT) (MB)    (MI)  (FT/S)
CALUMET HARBOR    37     360/  9/ 13 1007.0F
MICHIGAN CITY     36      30/ 17/ 19   N/A
BURNS HARBOR      37      60/ 12/ 19 1008.8
SAINT JOSEPH      37      30/  3/  4 1009.5

$$
&&




USA.gov is the U.S. government's official web portal to all federal, state and local government web resources and services.